EW3012 Livadea RO current weather conditions

sailwx.info

Wind from 085 at 1 knots gusting 4

Air temperature 11.1° C
Dewpoint -1.6° C

Last reported at 2020-Jan-22 13:06 UTC.
Time now 2020-Jan-22 13:46 UTC

Location: N 45°12' E 025°55'.
View on Google Maps.

See reports from other nearby stations

  
Tides and Currents Weather Stations Pressure Air Temp Water Temp Dewpoint Dewpoint Depression Visibility Wind Speed Wind Dir Waves Ship Positions
date/time (UTC)wind fromknots sea level pressurealtimeterstation pressurevisibilityair tempwater tempwave heightnotes
2020-Jan-22 13:06 085 1 gusting 4 11.1
2020-Jan-22 13:01 104 2 gusting 6 11.1
2020-Jan-22 12:56 089 3 gusting 8 11.7
2020-Jan-22 12:51 127 2 gusting 8 11.7
2020-Jan-22 12:45 126 2 gusting 5 11.7
2020-Jan-22 12:40 078 2 gusting 5 12.2
2020-Jan-22 12:35 103 2 gusting 6 12.2
2020-Jan-22 12:30 046 2 gusting 6 12.2
2020-Jan-22 12:24 121 2 gusting 5 12.2
2020-Jan-22 12:19 124 1 gusting 4 12.2
2020-Jan-22 12:14 072 1 gusting 3 12.2
2020-Jan-22 12:09 108 2 gusting 4 12.2
2020-Jan-22 12:04 044 2 gusting 4 11.7
2020-Jan-22 11:59 064 1 gusting 3 11.7
2020-Jan-22 11:53 105 2 gusting 5 11.7
2020-Jan-22 11:48 094 1 gusting 5 11.7
2020-Jan-22 11:43 092 1 gusting 3 11.1
2020-Jan-22 11:38 060 1 gusting 4 11.7
2020-Jan-22 11:32 105 1 gusting 4 11.7
2020-Jan-22 11:27 111 1 gusting 3 11.7
2020-Jan-22 11:22 158 1 gusting 4 11.1
2020-Jan-22 11:17 347 1 gusting 4 11.1
2020-Jan-22 11:11 140 1 gusting 4 11.7
2020-Jan-22 11:06 148 1 gusting 4 11.7
2020-Jan-22 11:01 114 0 gusting 2 11.7
2020-Jan-22 10:56 239 0 gusting 3 11.1
2020-Jan-22 10:51 143 0 gusting 3 11.1
2020-Jan-22 10:45 117 0 gusting 3 11.1
2020-Jan-22 10:40 158 0 gusting 3 11.1
2020-Jan-22 10:35 158 1 gusting 3 11.1
2020-Jan-22 10:30 082 2 gusting 4 10.6
2020-Jan-22 10:24 047 2 gusting 4 10.6
2020-Jan-22 10:19 104 1 gusting 4 10.6
2020-Jan-22 10:13 051 1 gusting 3 10.6
2020-Jan-22 10:08 046 1 gusting 4 10.6
2020-Jan-22 10:03 135 1 gusting 4 10.6
2020-Jan-22 09:58 106 10.6
2020-Jan-22 09:52 063 10.6
2020-Jan-22 09:47 136 10.6
2020-Jan-22 09:42 184 0 gusting 3 10.0
2020-Jan-22 09:36 103 1 gusting 3 9.4
2020-Jan-22 09:31 155 0 gusting 3 9.4
2020-Jan-22 09:26 122 0 gusting 3 9.4
2020-Jan-22 09:21 108 1 gusting 3 8.9
2020-Jan-22 09:16 134 1 gusting 3 8.9
2020-Jan-22 09:11 104 0 gusting 2 8.9
2020-Jan-22 09:05 131 0 gusting 1 8.9
2020-Jan-22 09:00 122 8.3
2020-Jan-22 08:55 219 0 gusting 1 8.3
2020-Jan-22 08:50 132 0 gusting 1 8.3
2020-Jan-22 08:44 132 0 gusting 1 7.8
2020-Jan-22 08:39 203 7.2
2020-Jan-22 08:34 243 0 gusting 2 6.1
2020-Jan-22 08:28 250 1 gusting 3 5.6
2020-Jan-22 08:23 224 0 gusting 3 5.0
2020-Jan-22 08:18 238 0 gusting 4 4.4
2020-Jan-22 08:13 228 0 gusting 4 3.9
2020-Jan-22 08:07 113 0 gusting 3 3.3
2020-Jan-22 08:02 269 2.8
2020-Jan-22 07:57 219 2.8
2020-Jan-22 07:52 235 1.7
2020-Jan-22 07:47 255 1.1
2020-Jan-22 07:42 280 1.1
2020-Jan-22 07:36 255 1.1
2020-Jan-22 07:31 143 0.6
2020-Jan-22 07:26 170 -0.0
2020-Jan-22 07:20 186 -0.6
2020-Jan-22 07:15 323 -1.7
2020-Jan-22 07:10 229 -2.2
2020-Jan-22 07:05 222 0 gusting 1 -2.2
2020-Jan-22 06:59 207 0 gusting 3 -2.8
2020-Jan-22 06:54 233 0 gusting 3 -3.3
2020-Jan-22 06:49 242 -3.3
2020-Jan-22 06:44 239 -3.9
2020-Jan-22 06:39 239 -4.4
2020-Jan-22 06:33 239 -5.0
2020-Jan-22 06:28 257 -5.6
2020-Jan-22 06:23 266 -5.6
2020-Jan-22 06:18 256 -5.6
2020-Jan-22 06:12 186 -5.6
2020-Jan-22 06:07 186 0 gusting 1 -5.6
2020-Jan-22 06:01 031 0 gusting 1 -5.6
2020-Jan-22 05:56 231 0 gusting 3 -5.6
2020-Jan-22 05:51 326 0 gusting 3 -5.6
2020-Jan-22 05:46 253 -6.1
2020-Jan-22 05:40 297 -6.1
2020-Jan-22 05:35 282 0 gusting 2 -6.1
2020-Jan-22 05:30 255 0 gusting 2 -5.6
2020-Jan-22 05:25 240 0 gusting 1 -6.1
2020-Jan-22 05:19 257 0 gusting 1 -6.1
2020-Jan-22 05:14 219 0 gusting 2 -5.6
2020-Jan-22 05:09 226 0 gusting 2 -5.6
2020-Jan-22 05:04 271 -5.6
2020-Jan-22 04:58 273 -5.6
2020-Jan-22 04:53 270 -5.6
2020-Jan-22 04:48 280 0 gusting 1 -5.6
2020-Jan-22 04:43 243 0 gusting 1 -5.6
2020-Jan-22 04:38 257 0 gusting 2 -5.6
2020-Jan-22 04:33 260 -5.6
2020-Jan-22 04:27 245 0 gusting 4 -5.6
2020-Jan-22 04:22 228 1 gusting 4 -5.6
2020-Jan-22 04:17 243 0 gusting 2 -5.6
2020-Jan-22 04:12 253 0 gusting 2 -5.6
2020-Jan-22 04:07 228 0 gusting 2 -5.6
2020-Jan-22 04:02 271 0 gusting 2 -5.6
2020-Jan-22 03:57 257 -6.1
2020-Jan-22 03:52 235 0 gusting 3 -5.6
2020-Jan-22 03:47 235 0 gusting 3 -5.6
2020-Jan-22 03:41 255 -6.1
2020-Jan-22 03:36 264 -6.1
2020-Jan-22 03:31 261 -6.1
2020-Jan-22 03:26 262 -6.1
2020-Jan-22 03:21 229 -5.6
2020-Jan-22 03:16 229 -5.6
2020-Jan-22 03:10 229 0 gusting 4 -5.0
2020-Jan-22 03:05 261 0 gusting 4 -4.4
2020-Jan-22 03:00 260 0 gusting 2 -5.0
2020-Jan-22 02:55 231 1 gusting 3 -5.0
2020-Jan-22 02:49 232 1 gusting 6 -5.0
2020-Jan-22 02:44 252 1 gusting 6 -5.6
2020-Jan-22 02:39 233 0 gusting 2 -6.1
2020-Jan-22 02:33 278 -6.1
2020-Jan-22 02:28 278 -6.1
2020-Jan-22 02:23 246 -6.1
2020-Jan-22 02:18 311 -6.1
2020-Jan-22 02:12 250 -6.1
2020-Jan-22 02:07 232 -6.1
2020-Jan-22 02:02 231 -6.7
2020-Jan-22 01:57 232 -6.1
2020-Jan-22 01:52 252 -6.1
2020-Jan-22 01:46 260 -6.1
2020-Jan-22 01:41 224 -6.1
2020-Jan-22 01:36 253 -6.1
2020-Jan-22 01:31 228 -6.1
2020-Jan-22 01:26 260 -6.1
2020-Jan-22 01:20 262 -6.1
2020-Jan-22 01:15 273 -6.1
2020-Jan-22 01:10 273 -6.1
2020-Jan-22 01:05 293 -6.1
2020-Jan-22 01:00 262 -6.1
2020-Jan-22 00:55 262 -6.1
2020-Jan-22 00:50 278 -6.1
2020-Jan-22 00:45 278 -6.1
2020-Jan-22 00:40 267 -6.1
2020-Jan-22 00:34 267 -6.1
2020-Jan-22 00:29 276 -6.1
2020-Jan-22 00:24 267 -6.1
2020-Jan-22 00:19 264 -6.1
2020-Jan-22 00:13 262 -6.1
2020-Jan-22 00:08 238 -6.1
2020-Jan-22 00:03 238 -6.1
2020-Jan-21 23:58 239 -6.1
2020-Jan-21 23:53 253 -5.6
2020-Jan-21 23:48 231 -5.6
2020-Jan-21 23:42 271 -6.1
2020-Jan-21 23:37 278 -6.7
2020-Jan-21 23:32 253 -6.1
2020-Jan-21 23:27 253 -6.1
2020-Jan-21 23:22 253 -6.1
2020-Jan-21 23:16 280 -6.1
2020-Jan-21 23:11 248 -6.1
2020-Jan-21 23:06 266 -6.1
2020-Jan-21 23:01 266 -6.1
2020-Jan-21 22:56 266 -6.1
2020-Jan-21 22:51 250 -6.1
2020-Jan-21 22:46 250 -6.1
2020-Jan-21 22:40 252 -6.1
2020-Jan-21 22:35 221 -6.1
2020-Jan-21 22:30 247 -6.1
2020-Jan-21 22:25 248 -6.1
2020-Jan-21 22:20 267 -6.1
2020-Jan-21 22:15 271 -6.1
2020-Jan-21 22:10 255 -6.1
2020-Jan-21 22:05 255 -6.1
2020-Jan-21 22:00 238 -6.1
2020-Jan-21 21:55 242 -6.1
2020-Jan-21 21:50 242 -6.1
2020-Jan-21 21:45 241 -6.1
2020-Jan-21 21:39 274 -6.1
2020-Jan-21 21:34 274 -6.1
2020-Jan-21 21:29 243 -6.1
2020-Jan-21 21:23 264 -6.7
2020-Jan-21 21:18 264 -6.7
2020-Jan-21 21:13 264 -6.1
2020-Jan-21 21:08 264 -6.1
2020-Jan-21 21:03 264 -6.1
2020-Jan-21 20:58 266 -6.1
2020-Jan-21 20:52 266 -6.1
2020-Jan-21 20:47 266 -6.1
2020-Jan-21 20:42 256 -6.1
2020-Jan-21 20:37 256 -6.1
2020-Jan-21 20:32 240 -6.1
2020-Jan-21 20:26 240 -5.6
2020-Jan-21 20:21 240 -5.6
2020-Jan-21 20:16 240 -5.0
2020-Jan-21 20:11 271 -5.0
2020-Jan-21 20:06 314 -5.0
2020-Jan-21 20:01 315 -5.6
2020-Jan-21 19:56 292 -5.6
2020-Jan-21 19:51 290 -5.6
2020-Jan-21 19:45 290 -5.6
2020-Jan-21 19:40 349 -5.6
2020-Jan-21 19:35 348 -5.6
2020-Jan-21 19:30 349 -5.0
2020-Jan-21 19:24 240 -5.0
2020-Jan-21 19:19 228 0 gusting 2 -5.0
2020-Jan-21 19:14 239 0 gusting 2 -5.0
2020-Jan-21 19:09 316 -5.0
2020-Jan-21 19:04 229 -5.0
2020-Jan-21 18:59 273 -5.6
2020-Jan-21 18:54 273 -5.0
2020-Jan-21 18:49 260 -5.0
2020-Jan-21 18:44 260 -5.0
2020-Jan-21 18:38 260 -5.0
2020-Jan-21 18:33 259 -5.0
2020-Jan-21 18:28 266 -4.4
2020-Jan-21 18:23 266 -4.4
2020-Jan-21 18:18 024 0 gusting 1 -4.4
2020-Jan-21 18:13 006 -4.4
2020-Jan-21 18:08 243 -4.4
2020-Jan-21 18:02 229 -4.4
2020-Jan-21 17:57 243 -4.4
2020-Jan-21 17:52 243 0 gusting 1 -4.4
2020-Jan-21 17:46 315 0 gusting 1 -4.4
2020-Jan-21 17:41 049 -3.9
2020-Jan-21 17:36 329 -3.9
2020-Jan-21 17:31 257 -3.9
2020-Jan-21 17:26 257 -3.9
2020-Jan-21 17:21 257 -3.9
2020-Jan-21 17:16 257 -3.9
2020-Jan-21 17:10 061 -3.3
2020-Jan-21 17:05 062 -3.3
2020-Jan-21 17:00 330 -3.3
2020-Jan-21 16:55 345 0 gusting 1 -3.3
2020-Jan-21 16:50 275 0 gusting 1 -3.3
2020-Jan-21 16:45 312 0 gusting 1 -3.3
2020-Jan-21 16:40 061 0 gusting 1 -2.8
2020-Jan-21 16:34 063 -2.8
2020-Jan-21 16:30 297 -2.8
2020-Jan-21 16:24 295 -2.8
2020-Jan-21 16:19 295 -2.2
2020-Jan-21 16:14 295 -2.2
2020-Jan-21 16:08 295 -1.7
2020-Jan-21 16:03 300 -1.1
2020-Jan-21 15:58 301 -1.1
2020-Jan-21 15:53 046 -1.1
2020-Jan-21 15:47 045 -1.1
2020-Jan-21 15:42 045 0 gusting 1 -0.6
2020-Jan-21 15:37 046 0 gusting 1 0.6
2020-Jan-21 15:31 046 0 gusting 1 -0.0
2020-Jan-21 15:26 065 0.6
2020-Jan-21 15:21 033 1.1
2020-Jan-21 15:15 033 0 gusting 2 1.7
2020-Jan-21 15:10 033 0 gusting 2 2.2
2020-Jan-21 15:05 040 2.2
2020-Jan-21 15:00 041 2.8
2020-Jan-21 14:55 040 2.8
2020-Jan-21 14:49 067 2.8
2020-Jan-21 14:44 158 3.3
2020-Jan-21 14:39 158 3.3
2020-Jan-21 14:33 158 3.9
2020-Jan-21 14:28 158 4.4
2020-Jan-21 14:23 158 4.4
2020-Jan-21 14:18 158 0 gusting 1 4.4
2020-Jan-21 14:13 074 1 gusting 1 5.0
2020-Jan-21 14:08 082 1 gusting 3 5.0
2020-Jan-21 14:03 095 1 gusting 3 5.6
2020-Jan-21 13:58 068 1 gusting 3 5.6
2020-Jan-21 13:52 070 1 gusting 3 5.6
2020-Jan-21 13:47 096 1 gusting 3 6.1
2020-Jan-21 13:41 109 1 gusting 3 6.1
2020-Jan-21 13:36 068 1 gusting 4 6.1
2020-Jan-21 13:31 113 1 gusting 4 6.7
2020-Jan-21 13:26 113 1 gusting 4 6.7
2020-Jan-21 13:21 143 1 gusting 4 6.7
2020-Jan-21 13:16 115 1 gusting 4 7.2
2020-Jan-21 13:10 111 1 gusting 4 7.2
2020-Jan-21 13:05 171 0 gusting 2 7.2
2020-Jan-21 13:00 138 0 gusting 2 7.2
2020-Jan-21 12:55 102 0 gusting 2 7.2
2020-Jan-21 12:50 120 0 gusting 3 7.8
2020-Jan-21 12:44 049 0 gusting 3 7.8
2020-Jan-21 12:39 058 0 gusting 3 7.8
2020-Jan-21 12:34 145 0 gusting 4 7.8
2020-Jan-21 12:29 181 0 gusting 4 7.8
2020-Jan-21 12:23 246 1 gusting 3 7.2
2020-Jan-21 12:18 228 0 gusting 2 7.2
2020-Jan-21 12:13 148 0 gusting 2 7.2
2020-Jan-21 12:08 125 0 gusting 2 7.2
2020-Jan-21 12:02 205 0 gusting 2 7.2
2020-Jan-21 11:57 255 1 gusting 2 7.2
2020-Jan-21 11:52 226 0 gusting 2 7.2
2020-Jan-21 11:47 226 0 gusting 2 7.2
2020-Jan-21 11:42 218 0 gusting 2 6.7
2020-Jan-21 11:36 226 0 gusting 2 6.7
2020-Jan-21 11:31 253 0 gusting 3 6.1
2020-Jan-21 11:26 255 0 gusting 3 6.1
2020-Jan-21 11:21 297 0 gusting 1 6.1
2020-Jan-21 11:15 239 0 gusting 1 6.1
2020-Jan-21 11:10 119 0 gusting 3 5.6
2020-Jan-21 11:05 235 1 gusting 3 5.6
2020-Jan-21 11:00 129 0 gusting 2 5.6
2020-Jan-21 10:55 294 0 gusting 1 5.6
2020-Jan-21 10:49 011 0 gusting 1 5.6
2020-Jan-21 10:44 282 0 gusting 2 5.6
2020-Jan-21 10:39 248 0 gusting 2 5.6
2020-Jan-21 10:34 211 0 gusting 1 5.0
2020-Jan-21 10:28 300 0 gusting 2 5.0
2020-Jan-21 10:23 274 0 gusting 2 5.0
2020-Jan-21 10:18 225 0 gusting 1 5.0
2020-Jan-21 10:13 128 5.0
2020-Jan-21 10:08 072 0 gusting 2 5.0
2020-Jan-21 10:03 208 0 gusting 2 3.9
2020-Jan-21 09:58 242 0 gusting 3 3.3
2020-Jan-21 09:53 246 1 gusting 3 3.3
2020-Jan-21 09:47 226 0 gusting 2 3.3
2020-Jan-21 09:42 214 0 gusting 1 2.8
2020-Jan-21 09:37 225 0 gusting 2 2.8
2020-Jan-21 09:32 225 1 gusting 2 2.2
2020-Jan-21 09:27 245 1 gusting 4 2.2
2020-Jan-21 09:22 249 1 gusting 4 1.7
2020-Jan-21 09:16 269 1 gusting 3 1.1
2020-Jan-21 09:11 270 1 gusting 3 0.6
2020-Jan-21 09:06 243 1 gusting 3 -0.0
2020-Jan-21 09:01 262 1 gusting 4 -0.0
2020-Jan-21 08:56 272 2 gusting 4 -0.6
2020-Jan-21 08:51 271 2 gusting 4 -0.6
2020-Jan-21 08:46 277 2 gusting 4 -1.1
2020-Jan-21 08:41 281 1 gusting 5 -1.1
2020-Jan-21 08:35 263 2 gusting 5 -1.7
2020-Jan-21 08:30 221 2 gusting 5 -1.7
2020-Jan-21 08:25 248 2 gusting 6 -1.7
2020-Jan-21 08:20 245 2 gusting 6 -2.2
2020-Jan-21 08:15 289 1 gusting 4 -2.8
2020-Jan-21 08:09 263 2 gusting 4 -2.8
2020-Jan-21 08:04 255 1 gusting 4 -3.3
2020-Jan-21 07:59 246 1 gusting 2 -3.9
2020-Jan-21 07:53 240 0 gusting 1 -3.9
2020-Jan-21 07:48 256 0 gusting 2 -4.4
2020-Jan-21 07:43 246 1 gusting 3 -5.0
2020-Jan-21 07:38 224 2 gusting 4 -5.6
2020-Jan-21 07:32 243 1 gusting 4 -5.6
2020-Jan-21 07:27 248 -5.6
2020-Jan-21 07:22 240 -5.6
2020-Jan-21 07:17 240 -6.1
2020-Jan-21 07:11 240 -6.7
2020-Jan-21 07:06 245 -7.2
2020-Jan-21 07:01 224 0 gusting 2 -7.8
2020-Jan-21 06:56 250 0 gusting 2 -7.8
2020-Jan-21 06:50 245 0 gusting 1 -8.3
2020-Jan-21 06:45 270 0 gusting 1 -8.9
2020-Jan-21 06:40 233 0 gusting 0 -9.4
2020-Jan-21 06:35 236 0 gusting 0 -9.4
2020-Jan-21 06:30 238 -9.4
2020-Jan-21 06:24 239 -10.0
2020-Jan-21 06:19 281 -10.0
2020-Jan-21 06:14 244 -10.6
2020-Jan-21 06:09 244 -10.6
2020-Jan-21 06:04 246 -10.6
2020-Jan-21 05:59 211 -10.6
2020-Jan-21 05:53 210 -10.6
2020-Jan-21 05:48 211 -10.6
2020-Jan-21 05:43 210 -10.6
2020-Jan-21 05:38 210 -10.6
2020-Jan-21 05:32 210 -10.6
2020-Jan-21 05:27 210 -10.6
2020-Jan-21 05:22 205 -10.6
2020-Jan-21 05:17 222 -10.6
2020-Jan-21 05:12 222 -10.6
2020-Jan-21 05:07 278 -10.6
2020-Jan-21 05:02 278 -10.6
2020-Jan-21 04:57 278 -10.0
2020-Jan-21 04:52 239 -10.0
2020-Jan-21 04:47 229 0 gusting 0 -10.0
2020-Jan-21 04:41 231 0 gusting 1 -9.4
2020-Jan-21 04:36 268 0 gusting 1 -9.4
2020-Jan-21 04:31 255 0 gusting 1 -9.4
2020-Jan-21 04:26 252 0 gusting 1 -9.4
2020-Jan-21 04:20 254 0 gusting 1 -9.4
2020-Jan-21 04:15 251 0 gusting 1 -9.4
2020-Jan-21 04:09 248 0 gusting 1 -9.4
2020-Jan-21 04:05 246 0 gusting 1 -9.4
2020-Jan-21 03:59 270 0 gusting 0 -10.0
2020-Jan-21 03:54 236 0 gusting 0 -10.0
2020-Jan-21 03:49 222 -10.0
2020-Jan-21 03:44 221 -10.0
2020-Jan-21 03:38 235 -10.0
2020-Jan-21 03:33 235 -10.0
2020-Jan-21 03:28 233 -9.4
2020-Jan-21 03:23 235 0 gusting 1 -9.4
2020-Jan-21 03:17 222 0 gusting 1 -9.4
2020-Jan-21 03:12 246 -9.4
2020-Jan-21 03:07 253 -9.4
2020-Jan-21 03:02 229 -9.4
2020-Jan-21 02:57 264 0 gusting 1 -9.4
2020-Jan-21 02:52 264 -9.4
2020-Jan-21 02:47 281 -9.4
2020-Jan-21 02:41 271 -9.4
2020-Jan-21 02:36 228 -9.4
2020-Jan-21 02:30 229 0 gusting 2 -9.4
2020-Jan-21 02:25 260 0 gusting 2 -9.4
2020-Jan-21 02:20 255 -9.4
2020-Jan-21 02:15 232 -9.4
2020-Jan-21 02:09 232 -9.4
2020-Jan-21 02:04 277 0 gusting 2 -9.4
2020-Jan-21 01:59 277 1 gusting 2 -9.4
2020-Jan-21 01:54 245 0 gusting 2 -9.4
2020-Jan-21 01:49 262 0 gusting 2 -9.4
2020-Jan-21 01:44 263 0 gusting 2 -9.4
2020-Jan-21 01:39 257 -9.4
2020-Jan-21 01:34 232 -9.4
2020-Jan-21 01:28 225 -9.4
2020-Jan-21 01:23 231 -9.4
2020-Jan-21 01:18 232 0 gusting 1 -9.4
2020-Jan-21 01:12 221 -9.4
2020-Jan-21 01:07 249 -9.4
2020-Jan-21 01:02 249 -9.4
2020-Jan-21 00:56 251 -9.4
2020-Jan-21 00:51 252 -9.4
2020-Jan-21 00:46 252 0 gusting 1 -9.4
2020-Jan-21 00:41 266 0 gusting 1 -9.4
2020-Jan-21 00:35 243 0 gusting 0 -9.4
2020-Jan-21 00:30 214 -9.4
2020-Jan-21 00:25 275 0 gusting 1 -9.4
2020-Jan-21 00:19 260 0 gusting 1 -9.4
2020-Jan-21 00:14 259 0 gusting 1 -9.4
2020-Jan-21 00:09 278 -9.4
2020-Jan-21 00:04 246 -9.4
2020-Jan-20 23:58 236 -9.4
2020-Jan-20 23:53 236 -9.4
2020-Jan-20 23:48 257 -9.4
2020-Jan-20 23:43 257 -9.4
2020-Jan-20 23:38 354 -9.4
2020-Jan-20 23:32 282 -9.4
2020-Jan-20 23:27 283 -8.9
2020-Jan-20 23:22 283 -8.9
2020-Jan-20 23:17 283 -8.9
2020-Jan-20 23:12 296 -9.4
2020-Jan-20 23:06 297 -9.4
2020-Jan-20 23:01 236 -9.4
2020-Jan-20 22:56 215 -8.9
2020-Jan-20 22:50 215 -8.9
2020-Jan-20 22:46 215 -8.9
2020-Jan-20 22:40 214 -8.3
2020-Jan-20 22:35 214 -8.3
2020-Jan-20 22:30 215 -8.3
2020-Jan-20 22:25 190 0 gusting 1 -8.3
2020-Jan-20 22:20 239 0 gusting 1 -7.8
2020-Jan-20 22:15 238 1 gusting 3 -7.8
2020-Jan-20 22:10 233 0 gusting 3 -7.8
2020-Jan-20 22:05 255 -8.3
2020-Jan-20 21:59 263 0 gusting 1 -8.3
2020-Jan-20 21:54 254 -8.9
2020-Jan-20 21:49 262 -8.9
2020-Jan-20 21:44 253 -8.9
2020-Jan-20 21:38 268 -8.9
2020-Jan-20 21:33 269 -8.9
2020-Jan-20 21:28 269 -8.9
2020-Jan-20 21:22 268 -8.3
2020-Jan-20 21:17 269 -8.3
2020-Jan-20 21:12 268 -8.3
2020-Jan-20 21:07 268 -8.3
2020-Jan-20 21:01 268 -8.3
2020-Jan-20 20:56 268 -8.3
2020-Jan-20 20:51 268 -8.3
2020-Jan-20 20:46 256 -8.3
2020-Jan-20 20:40 256 -7.8
2020-Jan-20 20:35 256 -7.8
2020-Jan-20 20:30 256 -7.8
2020-Jan-20 20:25 256 -7.8
2020-Jan-20 20:20 256 -7.8
2020-Jan-20 20:15 256 -7.8
2020-Jan-20 20:10 256 -7.2
2020-Jan-20 20:04 247 -7.2
2020-Jan-20 19:59 269 -7.2
2020-Jan-20 19:53 269 0 gusting 0 -7.2
2020-Jan-20 19:48 268 0 gusting 2 -6.7
2020-Jan-20 19:43 259 -6.7
2020-Jan-20 19:38 262 -6.7
2020-Jan-20 19:33 260 -6.7
2020-Jan-20 19:28 260 -6.7
2020-Jan-20 19:23 242 -6.7
2020-Jan-20 19:17 242 -6.7
2020-Jan-20 19:12 246 -6.7
2020-Jan-20 19:07 277 -6.7
2020-Jan-20 19:02 238 -6.7
2020-Jan-20 18:56 238 -6.1
2020-Jan-20 18:51 238 -6.1
2020-Jan-20 18:46 246 -6.1
2020-Jan-20 18:41 246 -6.1
2020-Jan-20 18:36 273 -6.1
2020-Jan-20 18:30 273 -6.1
2020-Jan-20 18:25 273 -5.6
2020-Jan-20 18:20 278 -6.1
2020-Jan-20 18:15 278 -5.6
2020-Jan-20 18:10 268 -5.6
2020-Jan-20 18:05 269 -5.6
2020-Jan-20 18:00 269 -5.6
2020-Jan-20 17:49 268 -5.6
2020-Jan-20 17:44 269 -5.6
2020-Jan-20 17:39 267 -5.0
2020-Jan-20 17:34 267 -5.0
2020-Jan-20 17:29 267 -5.0
2020-Jan-20 17:24 270 -5.0
2020-Jan-20 17:19 270 -5.0
2020-Jan-20 17:14 269 -5.0
2020-Jan-20 17:08 269 0 gusting 1 -4.4
2020-Jan-20 17:03 269 0 gusting 1 -4.4
2020-Jan-20 16:58 278 -4.4
2020-Jan-20 16:52 278 -5.0
2020-Jan-20 16:47 278 -4.4
2020-Jan-20 16:42 278 -4.4
2020-Jan-20 16:37 278 -4.4
2020-Jan-20 16:32 278 -3.9
2020-Jan-20 16:27 278 -3.9
2020-Jan-20 16:22 070 -3.9
2020-Jan-20 16:17 071 -3.9
2020-Jan-20 16:12 071 -3.3
2020-Jan-20 16:07 071 -3.3
2020-Jan-20 16:02 071 -2.8
2020-Jan-20 15:56 071 -2.8
2020-Jan-20 15:51 071 -2.2
2020-Jan-20 15:46 071 -2.2
2020-Jan-20 15:41 071 -2.2
2020-Jan-20 15:36 070 -2.2
2020-Jan-20 15:31 071 -1.7
2020-Jan-20 15:25 071 -1.7
2020-Jan-20 15:20 071 -1.1
2020-Jan-20 15:15 071 -0.6
2020-Jan-20 15:10 071 -0.0
2020-Jan-20 15:05 073 0.6
2020-Jan-20 15:00 074 0.6
2020-Jan-20 14:55 074 1.1
2020-Jan-20 14:50 073 0 gusting 0 1.7
2020-Jan-20 14:45 074 0 gusting 1 1.7
2020-Jan-20 14:39 074 0 gusting 1 1.7
2020-Jan-20 14:34 103 0 gusting 0 2.2
2020-Jan-20 14:29 107 0 gusting 1 2.2
2020-Jan-20 14:24 108 0 gusting 2 2.8
2020-Jan-20 14:19 070 1 gusting 2 2.8
2020-Jan-20 14:14 089 0 gusting 3 2.8
2020-Jan-20 14:09 091 0 gusting 3 2.8
2020-Jan-20 14:04 075 1 gusting 3 2.8
2020-Jan-20 13:58 044 0 gusting 3 3.3
2020-Jan-20 13:53 134 1 gusting 4 3.3
2020-Jan-20 13:48 100 2 gusting 4 3.3
2020-Jan-20 13:42 091 1 gusting 4 3.3
2020-Jan-20 13:37 104 0 gusting 4 3.3
2020-Jan-20 13:32 156 0 gusting 4 3.3
2020-Jan-20 13:27 143 1 gusting 2 3.3
2020-Jan-20 13:21 134 1 gusting 4 3.3
2020-Jan-20 13:16 208 1 gusting 4 3.3
2020-Jan-20 13:11 150 1 gusting 3 3.3
2020-Jan-20 13:05 131 1 gusting 3 3.3
2020-Jan-20 13:00 127 1 gusting 3 3.3